Location: Archemont
(49.1579°N, 1.7598°E)
Time: 15:25:36
(UTC+00:00)

IRIDIUM 103 - Pass Details

Date: 03 February 2023
Orbit: 776 x 779 km, 86.4° (Epoch: 29 March)

Event Time Altitude Azimuth Distance (km) Brightness Sun altitude
Rises 18:47:34 0° 355° (N) 3,275 7.6 -19.0°
Reaches altitude 10° 18:49:56 10° 355° (N) 2,343 6.8 -19.4°
Maximum altitude 18:55:11 82° 269° (W) 792 4.4 -20.2°
Drops below altitude 10° 19:00:23 10° 182° (S) 2,324 6.8 -21.1°
Sets 19:02:43 0° 181° (S) 3,247 7.6 -21.4°
